CW2857 Weather Reports


Display with metric or nautical units.
time (UTC)temp
F
wind
direction
speed
MPH
gust
MPH
rain 1hr
in
rain 24hr
in
rain mn
in
humidity
%
barometer
mb
20260505230510 72 94 3.0 7.0 0.00 0.14 0.01 27 1008.2
20260505230011 73 210 3.0 6.0 0.00 0.14 0.01 27 1008.2
20260505225513 74 163 0.0 6.0 0.00 0.14 0.01 26 1008.3
20260505225010 75 5 4.0 8.0 0.00 0.14 0.01 26 1008.4
20260505224509 76 92 2.0 7.0 0.00 0.14 0.01 26 1008.3
20260505224008 75 90 1.0 5.0 0.00 0.14 0.01 27 1008.3
20260505223509 73 37 1.0 5.0 0.00 0.14 0.01 27 1008.3
20260505223013 72 28 1.0 7.0 0.00 0.14 0.01 28 1008.6
20260505222512 74 118 5.0 8.0 0.00 0.14 0.01 26 1008.6
20260505222007 75 59 1.0 8.0 0.00 0.14 0.01 27 1008.8
20260505221508 76 76 2.0 5.0 0.00 0.14 0.01 25 1008.8
20260505221007 76 5 1.0 8.0 0.00 0.14 0.01 26 1008.9
20260505220505 76 9 3.0 8.0 0.00 0.14 0.01 27 1009.0
20260505220004 75 350 2.0 9.0 0.00 0.14 0.01 28 1009.1
20260505215503 74 38 2.0 9.0 0.00 0.14 0.01 28 1009.2
20260505215002 72 360 2.0 4.0 0.00 0.14 0.01 31 1009.2
20260505214602 72 132 1.0 8.0 0.00 0.14 0.01 31 1009.3
20260505214002 72 128 3.0 8.0 0.00 0.14 0.01 30 1009.4
20260505213503 69 71 1.0 9.0 0.00 0.14 0.01 34 1009.4
20260505213001 67 165 4.0 9.0 0.00 0.14 0.01 37 1009.4
20260505212603 68 162 6.0 9.0 0.00 0.14 0.01 34 1009.4
20260505212003 67 202 4.0 9.0 0.00 0.14 0.01 35 1009.4
20260505211601 68 193 1.0 7.0 0.00 0.14 0.01 35 1009.5
20260505211100 66 150 2.0 9.0 0.00 0.14 0.01 37 1009.5
20260505210559 66 168 5.0 11.0 0.00 0.14 0.01 36 1009.6
20260505210100 68 157 6.0 11.0 0.00 0.14 0.01 34 1009.6
20260505205600 69 5 1.0 10.0 0.00 0.14 0.01 34 1009.7
20260505205100 72 167 2.0 8.0 0.00 0.14 0.01 31 1009.8
20260505204601 71 115 2.0 9.0 0.00 0.14 0.01 32 1009.8
20260505204056 70 49 4.0 9.0 0.00 0.14 0.01 34 1009.8
20260505203555 69 27 3.0 7.0 0.00 0.14 0.01 35 1009.8
20260505203101 68 51 3.0 10.0 0.00 0.14 0.01 37 1009.9
20260505202554 68 80 4.0 10.0 0.00 0.14 0.01 37 1010.0
20260505202054 66 81 2.0 4.0 0.00 0.14 0.01 40 1010.0
20260505201554 65 36 2.0 7.0 0.00 0.14 0.01 41 1010.0
20260505201054 66 182 2.0 7.0 0.00 0.14 0.01 40 1010.0
20260505200554 68 187 3.0 6.0 0.00 0.14 0.01 37 1010.0
20260505200053 69 5 4.0 6.0 0.00 0.14 0.01 37 1010.1
20260505195551 67 86 2.0 10.0 0.00 0.14 0.01 40 1010.1
20260505195050 66 60 3.0 10.0 0.00 0.14 0.01 42 1010.2
20260505194605 65 82 4.0 8.0 0.00 0.14 0.01 43 1010.3
20260505194049 65 101 3.0 8.0 0.00 0.14 0.01 44 1010.3
20260505193548 65 88 4.0 7.0 0.00 0.14 0.01 44 1010.3
20260505193048 63 355 1.0 9.0 0.00 0.14 0.01 47 1010.4
20260505192547 63 65 1.0 9.0 0.00 0.14 0.01 48 1010.3
20260505192047 63 98 3.0 7.0 0.00 0.14 0.01 48 1010.5
20260505191556 62 171 3.0 5.0 0.00 0.14 0.01 48 1010.4
20260505191048 61 82 0.0 6.0 0.00 0.14 0.01 49 1010.3
20260505190548 61 190 1.0 6.0 0.00 0.14 0.01 48 1010.3
20260505190046 61 144 2.0 7.0 0.00 0.14 0.01 47 1010.4
20260505185545 62 247 2.0 5.0 0.00 0.14 0.01 48 1010.3
20260505185045 62 236 2.0 5.0 0.00 0.14 0.01 47 1010.3
20260505184545 62 355 2.0 5.0 0.00 0.14 0.01 48 1010.3
20260505184045 62 324 1.0 4.0 0.00 0.14 0.01 49 1010.3
20260505183546 63 258 1.0 5.0 0.00 0.14 0.01 46 1010.3
20260505183043 65 150 1.0 9.0 0.00 0.14 0.01 44 1010.3
20260505182543 63 350 2.0 9.0 0.00 0.14 0.01 49 1010.3
20260505182044 61 338 0.0 3.0 0.00 0.14 0.01 54 1010.3
20260505181540 58 15 0.0 5.0 0.00 0.14 0.01 56 1010.3
20260505181040 58 194 1.0 8.0 0.00 0.14 0.01 56 1010.4
20260505180539 58 333 3.0 8.0 0.00 0.14 0.01 57 1010.3
20260505180046 58 219 3.0 7.0 0.00 0.14 0.01 58 1010.2
20260505175536 57 229 2.0 6.0 0.00 0.14 0.01 59 1010.2
20260505175035 57 248 3.0 7.0 0.00 0.14 0.01 60 1010.2
20260505174534 56 205 2.0 5.0 0.00 0.14 0.01 61 1010.1
20260505174034 56 236 2.0 6.0 0.00 0.14 0.01 62 1010.1
20260505173534 56 266 3.0 6.0 0.00 0.14 0.01 62 1010.2
20260505173032 55 229 3.0 6.0 0.00 0.14 0.01 62 1010.2
20260505172533 56 252 2.0 7.0 0.00 0.14 0.01 62 1010.1
20260505172032 56 251 2.0 8.0 0.00 0.14 0.01 62 1010.0
20260505171531 55 200 2.0 8.0 0.00 0.14 0.01 63 1010.0
20260505171031 55 211 5.0 8.0 0.00 0.14 0.01 62 1010.0
20260505170530 55 234 2.0 9.0 0.00 0.14 0.01 63 1010.0
20260505170029 55 227 4.0 9.0 0.00 0.14 0.01 63 1009.9
20260505165528 54 198 4.0 11.0 0.00 0.14 0.01 64 1009.9
20260505165028 54 241 6.0 11.0 0.00 0.14 0.01 64 1009.9
20260505164528 54 282 6.0 12.0 0.00 0.14 0.01 64 1009.9
20260505164027 54 244 7.0 12.0 0.00 0.14 0.01 64 1009.8
20260505163525 54 232 6.0 11.0 0.00 0.14 0.01 64 1009.8
20260505163025 54 270 5.0 9.0 0.00 0.14 0.01 64 1009.8
20260505162525 54 207 4.0 10.0 0.00 0.14 0.01 65 1009.6
20260505162024 54 248 3.0 10.0 0.00 0.14 0.01 65 1009.6
20260505161526 54 237 5.0 11.0 0.00 0.14 0.01 65 1009.6
20260505161023 54 245 4.0 10.0 0.00 0.14 0.01 66 1009.6
20260505160524 53 244 5.0 10.0 0.00 0.14 0.01 65 1009.6
20260505153015 51 257 4.0 7.0 0.00 0.14 0.01 71 1009.2
20260505152513 51 267 3.0 7.0 0.00 0.14 0.01 72 1009.1
20260505152015 51 254 3.0 5.0 0.00 0.14 0.01 71 1009.2
20260505151514 50 233 3.0 8.0 0.00 0.14 0.01 71 1009.2
20260505151011 50 222 3.0 8.0 0.00 0.14 0.01 71 1009.2
20260505150512 50 251 2.0 5.0 0.00 0.14 0.01 72 1009.1
20260505140504 49 211 3.0 7.0 0.00 0.14 0.01 73 1008.4
20260505130104 48 197 4.0 11.0 0.01 0.14 0.01 72 1007.5
20260505124559 48 236 6.0 11.0 0.01 0.14 0.01 72 1007.3
20260505124057 48 237 4.0 11.0 0.01 0.14 0.01 72 1007.2
20260505123558 48 234 5.0 11.0 0.01 0.14 0.01 72 1007.2
20260505123101 48 200 7.0 10.0 0.01 0.14 0.01 73 1007.1
20260505122554 48 208 4.0 9.0 0.00 0.13 0.00 73 1007.1
20260505122054 48 199 5.0 9.0 0.00 0.13 0.00 73 1007.1
20260505121623 48 191 5.0 13.0 0.00 0.13 0.00 72 1007.0
20260505121054 48 209 8.0 13.0 0.00 0.13 0.00 72 1007.0
20260505120553 48 266 7.0 12.0 0.00 0.13 0.00 71 1006.9
20260505120053 48 227 5.0 11.0 0.00 0.13 0.00 71 1006.9
20260505115552 48 244 7.0 14.0 0.00 0.13 0.00 71 1006.9
20260505115052 48 234 7.0 16.0 0.00 0.13 0.00 70 1006.8
20260505114553 49 248 7.0 16.0 0.00 0.13 0.00 70 1006.8
20260505114052 48 242 8.0 16.0 0.00 0.13 0.00 70 1006.8
20260505113551 49 252 7.0 15.0 0.00 0.13 0.00 70 1007.0
20260505113056 49 237 8.0 15.0 0.00 0.13 0.00 70 1007.0
20260505112550 49 252 5.0 16.0 0.00 0.13 0.00 70 1006.9
20260505112051 49 355 8.0 16.0 0.00 0.13 0.00 70 1006.8
20260505111553 48 246 7.0 11.0 0.00 0.13 0.00 70 1006.9
20260505111055 48 355 6.0 11.0 0.00 0.13 0.00 70 1006.9
20260505110554 48 259 6.0 12.0 0.00 0.13 0.00 71 1006.9
20260505102047 48 249 7.0 16.0 0.00 0.13 0.00 70 1006.7
20260505101546 48 241 6.0 14.0 0.00 0.13 0.00 70 1006.6
20260505101047 48 231 9.0 14.0 0.00 0.13 0.00 71 1006.7
20260505100549 48 240 6.0 14.0 0.00 0.13 0.00 70 1006.7
20260505100115 48 258 9.0 15.0 0.00 0.13 0.00 70 1006.8
20260505095549 48 236 7.0 15.0 0.00 0.13 0.00 70 1006.8
20260505095048 48 238 6.0 11.0 0.00 0.13 0.00 70 1006.9
20260505094545 48 281 6.0 15.0 0.00 0.13 0.00 70 1006.8
20260505094044 48 238 7.0 16.0 0.00 0.13 0.00 70 1006.8
20260505093544 49 280 9.0 16.0 0.00 0.13 0.00 70 1006.8
20260505093044 49 235 9.0 12.0 0.00 0.13 0.00 69 1006.9
20260505092550 49 222 8.0 16.0 0.00 0.13 0.00 69 1006.9
20260505092044 49 229 8.0 16.0 0.00 0.13 0.00 69 1007.0
20260505091606 49 183 10.0 16.0 0.00 0.13 0.00 69 1006.9
20260505091043 49 267 9.0 19.0 0.00 0.13 0.00 69 1007.0
20260505090543 49 245 10.0 19.0 0.00 0.13 0.00 70 1006.9
20260505090056 49 237 8.0 14.0 0.00 0.13 0.00 70 1006.9
20260505085542 50 250 7.0 21.0 0.00 0.13 0.00 69 1007.0
20260505085044 50 229 6.0 21.0 0.00 0.13 0.00 69 1007.1
20260505084545 50 198 9.0 19.0 0.00 0.13 0.00 65 1007.0
20260505084044 50 264 10.0 20.0 0.00 0.13 0.00 70 1007.0
20260505083542 50 254 9.0 24.0 0.00 0.13 0.00 70 1006.8
20260505083048 50 239 11.0 20.0 0.00 0.13 0.00 70 1006.6
20260505082539 50 244 13.0 19.0 0.00 0.13 0.00 72 1006.6
20260505082039 50 243 10.0 16.0 0.00 0.13 0.00 73 1006.6
20260505081543 49 223 10.0 15.0 0.00 0.13 0.00 73 1006.4
20260505081042 49 205 8.0 15.0 0.00 0.13 0.00 74 1006.6
20260505080541 49 252 8.0 16.0 0.00 0.13 0.00 73 1006.8
20260505080048 49 219 8.0 18.0 0.00 0.13 0.00 74 1006.9
20260505075537 49 251 9.0 18.0 0.00 0.13 0.00 74 1007.0
20260505075038 49 244 9.0 14.0 0.00 0.13 0.00 75 1006.7
20260505074540 49 203 9.0 16.0 0.00 0.13 0.00 75 1006.7
20260505074039 49 182 6.0 20.0 0.00 0.13 0.00 75 1006.9
20260505073535 49 232 12.0 20.0 0.00 0.13 0.00 75 1007.0
20260505073043 49 254 10.0 20.0 0.00 0.13 0.00 76 1007.2
20260505072532 49 233 10.0 20.0 0.01 0.13 0.00 76 1006.9
20260505072031 49 254 9.0 19.0 0.01 0.13 0.00 76 1006.7
20260505071539 49 238 11.0 18.0 0.02 0.13 0.00 75 1006.7
20260505071030 49 253 12.0 18.0 0.02 0.13 0.00 75 1006.6
20260505070528 49 218 10.0 18.0 0.03 0.13 0.00 76 1006.5
20260505070029 49 246 10.0 18.0 0.03 0.13 0.00 76 1006.2
20260505065526 49 237 9.0 17.0 0.03 0.13 0.13 76 1006.4
20260505065025 50 233 7.0 16.0 0.03 0.13 0.13 76 1006.6
20260505064525 49 189 8.0 16.0 0.03 0.13 0.13 76 1006.7
20260505064024 49 221 6.0 10.0 0.03 0.13 0.13 76 1007.0
20260505063524 49 202 6.0 10.0 0.03 0.13 0.13 76 1007.0
20260505063033 49 202 6.0 12.0 0.03 0.13 0.13 76 1007.2
20260505062524 49 246 7.0 16.0 0.02 0.12 0.12 74 1007.1
20260505062030 50 211 6.0 16.0 0.02 0.12 0.12 73 1007.1
20260505061527 50 235 8.0 21.0 0.01 0.11 0.11 72 1006.7
20260505061024 51 254 11.0 21.0 0.01 0.11 0.11 70 1006.6
20260505060518 51 223 13.0 21.0 0.00 0.10 0.10 68 1006.3
20260505060018 51 195 12.0 21.0 0.00 0.10 0.10 67 1006.2
20260505055518 51 266 12.0 22.0 0.00 0.10 0.10 67 1006.0
20260505055020 51 196 12.0 22.0 0.00 0.10 0.10 68 1005.9
20260505054516 51 244 9.0 19.0 0.00 0.10 0.10 68 1005.8
20260505054017 51 246 9.0 19.0 0.00 0.10 0.10 67 1005.9
20260505053516 51 232 11.0 18.0 0.00 0.10 0.10 66 1006.0
20260505053016 52 271 9.0 16.0 0.00 0.10 0.10 65 1005.9
20260505052515 52 211 10.0 17.0 0.00 0.10 0.10 65 1005.9
20260505052015 52 252 10.0 17.0 0.00 0.10 0.10 65 1005.9
20260505051531 52 246 10.0 17.0 0.00 0.10 0.10 65 1005.8
20260505051016 52 230 10.0 19.0 0.00 0.10 0.10 65 1005.8
20260505050520 51 184 10.0 20.0 0.00 0.10 0.10 65 1005.9
20260505041516 51 232 10.0 22.0 0.00 0.10 0.10 68 1005.4
20260505041013 52 193 12.0 22.0 0.00 0.10 0.10 68 1005.4
20260505040513 51 232 11.0 23.0 0.00 0.10 0.10 68 1005.4
20260505040015 51 226 10.0 20.0 0.00 0.10 0.10 70 1005.4
20260505035512 51 217 9.0 21.0 0.00 0.10 0.10 72 1005.4
20260505035012 51 242 12.0 23.0 0.00 0.10 0.10 73 1005.3
20260505034512 51 236 13.0 23.0 0.00 0.10 0.10 73 1005.3
20260505034011 51 252 11.0 19.0 0.00 0.10 0.10 73 1005.2
20260505033510 51 232 10.0 20.0 0.00 0.10 0.10 73 1005.2
20260505033010 51 234 10.0 26.0 0.00 0.10 0.10 71 1005.2
20260505032513 51 259 11.0 26.0 0.00 0.10 0.10 70 1005.2
20260505032008 51 171 12.0 19.0 0.01 0.10 0.10 70 1005.0
20260505031522 51 207 12.0 17.0 0.01 0.10 0.10 71 1004.9
20260505031009 51 224 11.0 16.0 0.01 0.10 0.10 71 1004.7
20260505030508 51 212 11.0 17.0 0.01 0.10 0.10 71 1004.6
20260505030008 51 175 11.0 21.0 0.01 0.10 0.10 71 1004.7
20260505025514 51 260 13.0 22.0 0.01 0.10 0.10 71 1004.6
20260505025007 51 223 14.0 23.0 0.01 0.10 0.10 73 1004.5
20260505024506 51 202 15.0 22.0 0.01 0.10 0.10 74 1004.6
20260505024006 51 219 11.0 21.0 0.01 0.10 0.10 75 1004.7
20260505023505 51 267 13.0 21.0 0.01 0.10 0.10 76 1004.9
20260505023004 51 269 10.0 19.0 0.01 0.10 0.10 74 1005.2
20260505022504 52 261 7.0 18.0 0.01 0.10 0.10 73 1005.5
20260505022003 52 258 10.0 20.0 0.00 0.09 0.09 72 1005.5
20260505021504 52 247 9.0 17.0 0.00 0.09 0.09 71 1005.5
20260505021002 52 224 9.0 19.0 0.00 0.09 0.09 71 1005.4
20260505020503 52 238 9.0 19.0 0.00 0.09 0.09 72 1005.1
20260505020003 52 192 9.0 20.0 0.00 0.09 0.09 73 1004.9
20260505015503 52 221 10.0 22.0 0.01 0.09 0.09 74 1004.9
20260505015002 52 221 10.0 26.0 0.02 0.09 0.09 75 1004.8
20260505014504 51 246 12.0 26.0 0.03 0.09 0.09 76 1004.7
20260505014103 52 244 13.0 23.0 0.04 0.09 0.09 76 1004.6
20260505014002 52 234 13.0 23.0 0.04 0.09 0.09 76 1004.5
20260505013600 52 231 10.0 22.0 0.05 0.09 0.09 75 1004.5
20260505013100 52 225 13.0 19.0 0.06 0.09 0.09 74 1004.4
20260505012600 53 260 9.0 16.0 0.06 0.09 0.09 69 1004.3
20260505012059 54 282 2.0 11.0 0.06 0.09 0.09 67 1004.1
20260505011559 53 204 8.0 11.0 0.06 0.09 0.09 67 1003.7
20260505011058 53 173 7.0 14.0 0.06 0.09 0.09 69 1003.6
20260505010601 52 175 9.0 19.0 0.06 0.09 0.09 72 1003.4
20260505010113 52 182 12.0 23.0 0.07 0.09 0.09 75 1002.9
20260505005557 52 209 13.0 19.0 0.07 0.08 0.08 75 1003.0
20260505005056 52 193 7.0 15.0 0.06 0.07 0.07 73 1005.3
20260505004555 52 217 7.0 14.0 0.06 0.06 0.06 71 1006.0
20260505004052 53 212 7.0 13.0 0.05 0.05 0.05 70 1006.3
20260505003551 54 245 4.0 12.0 0.04 0.04 0.04 69 1006.2
20260505003053 54 192 4.0 12.0 0.03 0.03 0.03 65 1005.9
20260505002550 55 200 5.0 11.0 0.03 0.03 0.03 65 1005.7
20260505002051 54 209 7.0 17.0 0.03 0.03 0.03 65 1005.5
20260505001550 54 184 10.0 20.0 0.03 0.03 0.03 65 1005.4
20260505001054 54 173 14.0 20.0 0.03 0.03 0.03 67 1005.4
20260505000549 54 194 13.0 23.0 0.03 0.03 0.03 67 1005.2
20260505000054 55 159 15.0 25.0 0.02 0.02 0.02 64 1005.0
20260504235552 58 148 13.0 21.0 0.01 0.01 0.01 57 1005.1
20260504235048 61 44 6.0 13.0 0.00 0.00 0.00 54 1004.7
20260504234548 61 360 1.0 9.0 0.00 0.00 0.00 49 1004.1
20260504234047 62 360 4.0 10.0 0.00 0.00 0.00 45 1003.7
20260504233550 62 360 5.0 11.0 0.00 0.00 0.00 43 1003.5
20260504233052 62 360 5.0 12.0 0.00 0.00 0.00 42 1003.3
20260504232545 62 360 7.0 15.0 0.00 0.00 0.00 44 1003.3
20260504232045 62 360 10.0 15.0 0.00 0.00 0.00 42 1003.4
20260504231545 63 360 9.0 17.0 0.00 0.00 0.00 41 1003.4
20260504231046 62 360 10.0 17.0 0.00 0.00 0.00 40 1003.5